STARLINK-4706

operational
NORAD ID: 53779 Int'l Des: 2022-111 Owner: SPXS Country: US Constellation: starlink
LEOCIRCULAR

About STARLINK-4706

Description loading...

Live Position

Loading 3D Globe...

Upcoming Passes

Altitude History

Altitude vs Time

uPlot chart will show altitude changes over time

Two-Line Element Set

1 53779U 22111G 25251.58992745 .00000770 00000-0 66435-4 0 9994
2 53779 53.2191 11.7186 0001285 89.0732 271.0407 15.08840046166205
Epoch: Sep 8, 2025 • Age: 13 hours

Current Status

Altitude 544.1 km
Velocity 7.59 km/s
Sub-Earth Point -15.04°S, 32.48°W
Launch Date Sep 11, 2022
Age 2.9 years
Type internet

Technical Details

Classification Payload
Mass 305.00 kg
Dry Mass 290.00 kg
Total Mass 305.00 kg
Length 0.20 m
Diameter 2.80 m
Span 9.00 m
Shape Box + pan
Manufacturer SPXS
Bus Type Starlink
Phase Status In Orbit
Owner/State SPXS/US

Large Constellations

Loading constellations...